Location: Budapest
(47.4979°N, 19.0402°E)
Time: 17:06:13
(UTC+02:00)

OTV 5 (USA 277) - Pass Details

Date: 15 October 2017
Orbit: 404 x 417 km, 43.0° (Epoch: 07 September)

Event Time Altitude Azimuth Distance (km) Brightness Sun altitude
Rises 20:08:36 0° 263° (W) 2,355 ? -23.1°
Reaches altitude 10° 20:10:48 10° 254° (WSW) 1,491 ? -23.5°
Enters shadow 20:12:45 27° 229° (SW) 841 ? -23.8°
